Henrikh Movsisyan

Recruteur en chef - BKMA
3 Déc 2028
Dimanche
Processus

Personnalité

Adaptabilité (14) Ambition (7) Controverse (3) Loyauté (18) Pression (2) Professionnalisme (11) Sportivité (1) Tempérament (12)

Profil

Style d'entraînement Démocratique
Diplôme Continental B
Détermination 7
Gestion des joueurs 3
Motivation 8
Discipline 7
Satisfaction professionnelle
89%
Fatigue
0%
Rôle Recruteur en chef
Salaire 10.3K p/s
Contrat 14.03.2030

Performance

Comportement Bon
Efficacité de l'entraînement
22%
Développement des joueurs
35%
Prévention des blessures
35%
Mise en place tactique
20%

Événements récents

A participé à une réunion de recrutement maintenant
A participé à une réunion de recrutement maintenant
A recommandé une cible de transfert maintenant
A participé à une réunion de recrutement 7j
A participé à une réunion de recrutement 7j
A recommandé une cible de transfert 7j
A recommandé une cible de transfert 7j
A recommandé une cible de transfert 7j

Suivi en cours

78
Joueur Club Statut Capacité Confiance Observé Dernière observation Dernier vote
Alexandre Llovet Urartu Actif 89 / 85 58% 1 31.07.2028 Approuver
Aram Bayramyan Pyunik Actif 76 / 91 58% 1 12.06.2028 Approuver
Edgar Karapetyan Pyunik Actif 81 / 93 58% 1 01.06.2028 Approuver
Luis Olivera Defensores Unidos Actif 124 / 96 40% 2 30.12.2027 -
Lautaro Núñez Alvarado Actif 107 / 95 40% 1 30.12.2027 -
Hosea Michael Remo Stars Actif 86 / 106 40% 2 28.12.2027 -
Franco Malagueño Colegiales Actif 93 / 101 40% 1 28.12.2027 -
Walter Juárez Güemes Actif 96 / 104 40% 3 27.12.2027 -
Yeferson Rincon Atletico Venezuela Actif 99 / 105 40% 1 26.12.2027 -
Tomás Rojas Atlanta Actif 101 / 127 40% 4 25.12.2027 -
Matías Machado Racing Actif 126 / 119 40% 4 25.12.2027 -
Matías Sánchez Racing Actif 103 / 117 40% 3 24.12.2027 -
Ismael Cortez Gimnasia y Esgrima Actif 117 / 129 40% 1 23.12.2027 -
Rodrigo Ramírez Nueva Chicago Actif 126 / 98 40% 2 19.12.2027 -
Valentín Serrano Arsenal Actif 115 / 115 40% 2 16.12.2027 -
Agustín Benítez Defensores Actif 113 / 123 40% 5 15.12.2027 -
Fernando Bersano Madryn Actif 102 / 119 40% 9 14.12.2027 -
Federico Ulayar Talleres Actif 93 / 84 40% 3 13.12.2027 -
Martín García Atlanta Actif 111 / 118 40% 3 11.12.2027 -
Tiago Ferreyra Mitre Actif 116 / 105 40% 1 11.12.2027 -
Leandro Lucero Temperley Actif 130 / 106 40% 1 08.12.2027 -
Franco Díaz Temperley Actif 110 / 137 40% 3 06.12.2027 -
Marcos Enrique Tristán Suárez Actif 113 / 98 40% 3 24.11.2027 -
Yeferson Rodallega Envigado Actif 101 / 124 40% 2 24.11.2027 -
Pedro Sanz Central Norte Actif 121 / 120 40% 2 22.11.2027 -
Misael Tarón Ferro Carril Oeste Actif 129 / 115 40% 1 21.11.2027 -
Santiago Kubiszyn Morón Actif 117 / 107 40% 2 20.11.2027 -
Simón Contreras Iquique Actif 103 / 87 40% 1 20.11.2027 -
Tomás Ferreyra Defensores Unidos Actif 126 / 127 40% 5 17.11.2027 -
Mauricio Guzmán Tristán Suárez Actif 105 / 111 40% 1 17.11.2027 -
Maico Quiroz Güemes Actif 115 / 102 40% 4 15.11.2027 -
Marcio Gómez Racing Actif 115 / 103 40% 2 05.11.2027 -
Pedro Souto Temperley Actif 106 / 105 40% 4 29.10.2027 -
Nicolás Fernández Maipú Actif 119 / 121 40% 3 28.10.2027 -
Braian Aranda Agropecuario Argentino Actif 110 / 107 40% 2 26.10.2027 -
Brian Nievas Chaco For Ever Actif 104 / 117 40% 2 21.10.2027 -
Franco Camargo Gimnasia y Esgrima Actif 113 / 103 40% 2 19.10.2027 -
Tomás Porra Barracas Central Actif 130 / 115 40% 1 19.10.2027 -
Yvo Calleros Madryn Actif 118 / 110 40% 2 18.10.2027 -
Matías Bazzi Talleres Actif 88 / 103 40% 2 16.10.2027 -
Alejo Tabares All Boys Actif 109 / 105 40% 1 14.10.2027 -
Ian Pérez Defensores Actif 106 / 92 40% 1 02.10.2027 -
Tomás Castro Ponce Atlanta Actif 102 / 108 40% 1 25.09.2027 -
Lucas Monzón Alvarado Actif 127 / 127 40% 1 19.09.2027 -
Gabriel Díaz Patronato Actif 100 / 121 40% 1 06.09.2027 -
Ruslan Apekov Torpedo Moscow Actif 113 / 91 40% 2 30.12.2026 -
Víctor Guzmán Sporting CP Actif 93 / 109 40% 1 28.12.2026 -
Denis Rubanov Dinamo Stavropol Actif 85 / 74 40% 1 27.12.2026 -
Dmitry Kuptsov Spartak Tambov Actif 97 / 77 40% 1 27.12.2026 -
Rüstəm Əhmədzadə Sumgayit Actif 123 / 102 40% 2 24.12.2026 -
Darío Ramírez Real Sociedad Actif 84 / 101 40% 1 23.12.2026 -
Kamran Aliev SKA Khabarovsk Actif 119 / 98 40% 1 23.12.2026 -
Akintunde Azeez US Bougouni Actif 94 / 83 40% 1 23.12.2026 -
Felipe Anderson Palmeiras Actif 133 / 134 40% 2 21.12.2026 -
Yeangel Montero Naxxar Lions Actif 104 / 93 40% 2 21.12.2026 -
Darko Todorović Fakel Actif 105 / 100 40% 1 20.12.2026 -
Paolo Yrizar Chernomorets Actif 78 / 111 40% 1 18.12.2026 -
Ekain Orobengoa Real Sociedad Actif 99 / 95 40% 1 18.12.2026 -
Bruno Gomes Valletta Actif 104 / 98 40% 1 17.12.2026 -
Ramazan Gadjimuradov Chelyabinsk Actif 111 / 102 40% 1 16.12.2026 -
Mateo Ortale Khazar Actif 113 / 103 40% 1 15.12.2026 -
Tumiso Mogakwe Birkirkara Actif 83 / 88 40% 1 15.12.2026 -
Alexandr Yushin Torpedo Moscow Actif 117 / 118 40% 1 11.12.2026 -
Said Aliev Rotor Actif 86 / 85 40% 1 09.12.2026 -
Roko Prša Valletta Actif 96 / 99 40% 1 08.12.2026 -
Alexandr Olenev Nart Actif 67 / 84 40% 1 07.12.2026 -
Shahriyar Abdullayev Ravan Actif 112 / 97 40% 1 07.12.2026 -
Gbolahan Salami Actif 86 / 89 40% 1 02.12.2026 -
Stanislav Biblyk Chaika Actif 101 / 84 40% 1 25.11.2026 -
Mason Bennett Harrogate Town Actif 82 / 95 40% 1 25.11.2026 -
Salman Abubakar Mosta Actif 92 / 77 40% 1 23.11.2026 -
Teddy Teuma Sliema Wanderers Actif 128 / 132 40% 1 21.11.2026 -
Nikita Simdyankin KDV Tomsk Actif 89 / 89 40% 1 19.11.2026 -
Dmitry Lesnikov Volgar Actif 78 / 99 40% 1 17.11.2026 -
Miloš Jovičić Zabbar St. Patrick Actif 84 / 98 40% 1 17.11.2026 -
Moussa Kanté Ararat Actif 93 / 104 55% 1 10.08.2026 -
Mauro Van Actif 78 / 82 55% 1 03.08.2026 Observer
Edgar Grigoryan Ararat-Armenia Actif 108 / 117 40% 1 03.08.2026 -